This demonstration page uses our WeatherBlox Daily Observations layout. Learn more.

Left ArrowRight Arrow

39.08367, -84.50855

Hourly Observations for April 5, 2019

Temp ( °F °C ) Dew Point ( °F °C ) Humidity (%) Winds ( mph kmh ) Pressure ( in mb ) Visibility ( mi km ) Precip ( " mm )
12:53 am 00:53 Cloudy 54 12.2 39 3.9 57 57 NE 6 9 30.15 1021 10 16.0934 0 0
1:53 am 01:53 Cloudy with Light Rain 52 11.1 42 5.6 69 69 NE 6 9 30.15 1021 10 16.0934 0 0.0254
2:53 am 02:53 Cloudy with Light Rain 50 10 44 6.7 80 80 NE 3 6 30.14 1021 10 16.0934 0.02 0.508
3:53 am 03:53 Cloudy with Light Rain 49 9.4 45 7.2 86 86 VRB 5 7 30.12 1020 10 16.0934 0.01 0.254
4:53 am 04:53 Cloudy with Light Rain 49 9.4 47 8.3 93 93 Calm 30.11 1020 8 12.87472 0.02 0.508
5:53 am 05:53 Cloudy with Light Rain 49 9.4 46 7.8 90 90 NE 5 7 30.1 1019 9 14.48406 0.01 0.254
6:53 am 06:53 Cloudy 48 8.9 46 7.8 93 93 NE 5 7 30.09 1019 10 16.0934 0.01 0.254
7:53 am 07:53 Cloudy 49 9.4 46 7.8 90 90 NNE 5 7 30.09 1019 10 16.0934 0 0
8:53 am 08:53 Cloudy 49 9.4 46 7.8 90 90 Calm 30.1 1019 10 16.0934 0 0
9:53 am 09:53 Cloudy 50 10 47 8.3 89 89 Calm 30.09 1019 7 11.26538 0 0.0254
10:21 am 10:21 Cloudy 51 10.6 47 8.3 86 86 Calm 30.1 1019 9 14.48406 0 0
10:49 am 10:49 Cloudy 52 11 46 8 82 82 Calm 30.1 1019 10 16.0934 0 0
10:53 am 10:53 Cloudy 52 11.1 47 8.3 83 83 Calm 30.09 1019 8 12.87472 0 0
11:53 am 11:53 Cloudy 52 11.1 48 8.9 86 86 Calm 30.09 1019 9 14.48406 0 0
12:53 pm 12:53 Cloudy 54 12.2 49 9.4 83 83 VRB 3 6 30.1 1019 10 16.0934 0 0
1:53 pm 13:53 Cloudy 55 12.8 50 10 83 83 Calm 30.09 1019 10 16.0934 0 0
2:40 pm 14:40 Cloudy 56 13.3 50 10 81 81 SSE 5 7 30.09 1019 10 16.0934 0 0
2:53 pm 14:53 Cloudy 57 13.9 50 10 78 78 S 5 7 30.09 1019 10 16.0934 0 0
3:53 pm 15:53 Cloudy 58 14.4 50 10 75 75 SSW 3 6 30.09 1019 10 16.0934 0 0
4:53 pm 16:53 Cloudy 60 15.6 50 10 70 70 NW 6 9 30.07 1018 10 16.0934 0 0
5:53 pm 17:53 Cloudy 59 15 49 9.4 69 69 W 3 6 30.08 1019 10 16.0934 0 0
6:01 pm 18:01 Cloudy 59 15 49 9.4 69 69 Calm 30.08 1019 10 16.0934 0 0
6:53 pm 18:53 Cloudy 60 15.6 49 9.4 67 67 N 5 7 30.08 1019 10 16.0934 0 0
7:53 pm 19:53 Mostly Cloudy 58 14.4 48 8.9 70 70 Calm 30.09 1019 10 16.0934 0 0
8:53 pm 20:53 Cloudy 54 12.2 48 8.9 80 80 Calm 30.09 1019 10 16.0934 0 0
9:53 pm 21:53 Cloudy 54 12.2 50 10 87 87 Calm 30.12 1020 10 16.0934 0 0
10:53 pm 22:53 Cloudy 54 12.2 50 10 87 87 Calm 30.14 1021 10 16.0934 0 0
11:53 pm 23:53 Cloudy 54 12.2 50 10 87 87 Calm 30.13 1020 10 16.0934 0 0

Powered by AerisWeather